| time (UTC) | temp F | wind direction | speed MPH | gust MPH | rain 1hr in | rain 24hr in | rain mn in | humidity % | barometer mb |
| 20260505083404 | 81 | 141 | 9.0 | 17.0 | 0.00 | 0.00 | 0.00 | 67 | 1015.7 |
| 20260505082905 | 82 | 74 | 6.0 | 13.0 | 0.00 | 0.00 | 0.00 | 68 | 1015.7 |
| 20260505082404 | 82 | 125 | 6.0 | 14.0 | 0.00 | 0.00 | 0.00 | 69 | 1015.8 |
| 20260505081904 | 81 | 124 | 6.0 | 16.0 | 0.00 | 0.00 | 0.00 | 69 | 1015.8 |
| 20260505081404 | 81 | 127 | 7.0 | 14.0 | 0.00 | 0.00 | 0.00 | 69 | 1015.8 |
| 20260505080904 | 82 | 111 | 4.0 | 20.0 | 0.00 | 0.00 | 0.00 | 69 | 1016.0 |
| 20260505080404 | 81 | 130 | 5.0 | 16.0 | 0.00 | 0.00 | 0.00 | 70 | 1016.0 |
| 20260505075904 | 81 | 79 | 2.0 | 13.0 | 0.00 | 0.00 | 0.00 | 72 | 1016.0 |
| 20260505075404 | 81 | 81 | 7.0 | 16.0 | 0.00 | 0.00 | 0.00 | 70 | 1016.1 |
| 20260505074404 | 81 | 141 | 6.0 | 17.0 | 0.00 | 0.00 | 0.00 | 70 | 1016.0 |
| 20260505073904 | 81 | 91 | 7.0 | 16.0 | 0.00 | 0.00 | 0.00 | 71 | 1016.1 |
| 20260505073404 | 80 | 85 | 7.0 | 15.0 | 0.00 | 0.00 | 0.00 | 71 | 1016.2 |
| 20260505072404 | 81 | 110 | 7.0 | 20.0 | 0.00 | 0.00 | 0.00 | 71 | 1016.4 |
| 20260505071904 | 81 | 100 | 6.0 | 15.0 | 0.00 | 0.00 | 0.00 | 71 | 1016.4 |
| 20260505071404 | 80 | 80 | 5.0 | 15.0 | 0.00 | 0.00 | 0.00 | 72 | 1016.4 |
| 20260505070904 | 81 | 106 | 4.0 | 18.0 | 0.00 | 0.00 | 0.00 | 72 | 1016.5 |
| 20260505065904 | 80 | 123 | 8.0 | 14.0 | 0.00 | 0.00 | 0.00 | 72 | 1016.5 |
| 20260505065404 | 81 | 76 | 8.0 | 13.0 | 0.00 | 0.00 | 0.00 | 71 | 1016.6 |
| 20260505064905 | 80 | 95 | 7.0 | 15.0 | 0.00 | 0.00 | 0.00 | 71 | 1016.7 |
| 20260505063905 | 81 | 105 | 7.0 | 14.0 | 0.00 | 0.00 | 0.00 | 70 | 1016.7 |
| 20260505062904 | 80 | 98 | 7.0 | 14.0 | 0.00 | 0.00 | 0.00 | 70 | 1016.8 |
| 20260505062404 | 80 | 101 | 9.0 | 20.0 | 0.00 | 0.00 | 0.00 | 69 | 1016.9 |
| 20260505061904 | 80 | 92 | 6.0 | 14.0 | 0.00 | 0.00 | 0.00 | 71 | 1016.9 |
| 20260505061405 | 80 | 133 | 10.0 | 16.0 | 0.00 | 0.00 | 0.00 | 70 | 1016.9 |
| 20260505060404 | 79 | 112 | 5.0 | 12.0 | 0.00 | 0.00 | 0.00 | 74 | 1017.0 |
| 20260505055904 | 79 | 118 | 3.0 | 12.0 | 0.00 | 0.00 | 0.00 | 73 | 1017.0 |
| 20260505055403 | 79 | 95 | 6.0 | 13.0 | 0.00 | 0.00 | 0.00 | 73 | 1017.0 |
| 20260505054904 | 79 | 105 | 5.0 | 14.0 | 0.00 | 0.00 | 0.00 | 72 | 1017.1 |
| 20260505054404 | 80 | 118 | 4.0 | 14.0 | 0.00 | 0.00 | 0.00 | 71 | 1017.0 |
| 20260505053904 | 80 | 122 | 7.0 | 15.0 | 0.00 | 0.00 | 0.00 | 70 | 1017.1 |
| 20260505052904 | 80 | 118 | 8.0 | 15.0 | 0.00 | 0.00 | 0.00 | 70 | 1017.2 |
| 20260505052404 | 80 | 92 | 7.0 | 15.0 | 0.00 | 0.00 | 0.00 | 70 | 1017.2 |
| 20260505051904 | 80 | 91 | 6.0 | 13.0 | 0.00 | 0.00 | 0.00 | 71 | 1017.2 |
| 20260505051404 | 79 | 98 | 7.0 | 12.0 | 0.00 | 0.00 | 0.00 | 71 | 1017.2 |
| 20260505050904 | 79 | 116 | 8.0 | 14.0 | 0.00 | 0.00 | 0.00 | 70 | 1017.3 |
| 20260505050404 | 79 | 72 | 6.0 | 15.0 | 0.00 | 0.00 | 0.00 | 71 | 1017.2 |
| 20260505041404 | 75 | 156 | 1.0 | 5.0 | 0.00 | 0.00 | 0.00 | 79 | 1017.0 |
| 20260505040904 | 74 | 153 | 0.0 | 1.0 | 0.00 | 0.00 | 0.00 | 80 | 1016.9 |
| 20260505040404 | 73 | 153 | 1.0 | 3.0 | 0.00 | 0.00 | 0.00 | 80 | 1016.8 |
| 20260505035904 | 73 | 156 | 0.0 | 0.0 | 0.00 | 0.00 | 0.00 | 80 | 1016.8 |
| 20260505034905 | 73 | 161 | 1.0 | 3.0 | 0.00 | 0.00 | 0.00 | 80 | 1016.7 |
| 20260505034404 | 73 | 135 | 1.0 | 3.0 | 0.00 | 0.00 | 0.00 | 80 | 1016.6 |
| 20260505033904 | 72 | 165 | 1.0 | 5.0 | 0.00 | 0.00 | 0.00 | 80 | 1016.6 |
| 20260505033404 | 72 | 156 | 1.0 | 3.0 | 0.00 | 0.00 | 0.00 | 80 | 1016.5 |
| 20260505032904 | 72 | 163 | 0.0 | 0.0 | 0.00 | 0.00 | 0.00 | 80 | 1016.5 |
| 20260505032404 | 72 | 159 | 1.0 | 5.0 | 0.00 | 0.00 | 0.00 | 80 | 1016.4 |
| 20260505031904 | 72 | 157 | 0.0 | 5.0 | 0.00 | 0.00 | 0.00 | 81 | 1016.4 |
| 20260505031404 | 71 | 159 | 0.0 | 3.0 | 0.00 | 0.00 | 0.00 | 81 | 1016.4 |
| 20260505030404 | 71 | 175 | 0.0 | 1.0 | 0.00 | 0.00 | 0.00 | 82 | 1016.4 |
| 20260505025404 | 70 | 178 | 0.0 | 3.0 | 0.00 | 0.00 | 0.00 | 83 | 1016.2 |
| 20260505024904 | 70 | 176 | 0.0 | 5.0 | 0.00 | 0.00 | 0.00 | 83 | 1016.2 |
| 20260505024404 | 70 | 173 | 0.0 | 6.0 | 0.00 | 0.00 | 0.00 | 83 | 1016.2 |
| 20260505023904 | 70 | 180 | 0.0 | 5.0 | 0.00 | 0.00 | 0.00 | 83 | 1016.1 |
| 20260505023403 | 70 | 180 | 1.0 | 3.0 | 0.00 | 0.00 | 0.00 | 83 | 1016.0 |
| 20260505022905 | 70 | 180 | 0.0 | 3.0 | 0.00 | 0.00 | 0.00 | 83 | 1016.0 |
| 20260505022404 | 71 | 174 | 0.0 | 3.0 | 0.00 | 0.00 | 0.00 | 83 | 1016.0 |
| 20260505021403 | 71 | 156 | 0.0 | 2.0 | 0.00 | 0.00 | 0.00 | 83 | 1016.0 |
| 20260505020904 | 71 | 162 | 0.0 | 3.0 | 0.00 | 0.00 | 0.00 | 83 | 1015.9 |
| 20260505020404 | 71 | 173 | 0.0 | 2.0 | 0.00 | 0.00 | 0.00 | 83 | 1015.9 |
| 20260505015904 | 71 | 190 | 0.0 | 3.0 | 0.00 | 0.00 | 0.00 | 83 | 1015.8 |
| 20260505015404 | 70 | 171 | 1.0 | 6.0 | 0.00 | 0.00 | 0.00 | 83 | 1015.8 |
| 20260505014404 | 70 | 177 | 0.0 | 3.0 | 0.00 | 0.00 | 0.00 | 84 | 1015.8 |
| 20260505013904 | 70 | 183 | 0.0 | 2.0 | 0.00 | 0.00 | 0.00 | 84 | 1015.8 |
| 20260505013404 | 70 | 187 | 0.0 | 3.0 | 0.00 | 0.00 | 0.00 | 84 | 1015.7 |
| 20260505012904 | 70 | 182 | 0.0 | 2.0 | 0.00 | 0.00 | 0.00 | 84 | 1015.7 |
| 20260505012404 | 70 | 163 | 0.0 | 3.0 | 0.00 | 0.00 | 0.00 | 83 | 1015.6 |
| 20260505011904 | 70 | 164 | 1.0 | 3.0 | 0.00 | 0.00 | 0.00 | 83 | 1015.6 |
| 20260505011404 | 70 | 172 | 0.0 | 5.0 | 0.00 | 0.00 | 0.00 | 83 | 1015.6 |
| 20260505010904 | 70 | 168 | 0.0 | 2.0 | 0.00 | 0.00 | 0.00 | 83 | 1015.6 |
| 20260505010404 | 70 | 182 | 0.0 | 0.0 | 0.00 | 0.00 | 0.00 | 83 | 1015.6 |
| 20260505005904 | 70 | 156 | 0.0 | 1.0 | 0.00 | 0.00 | 0.00 | 83 | 1015.6 |
| 20260505005404 | 70 | 167 | 0.0 | 3.0 | 0.00 | 0.00 | 0.00 | 83 | 1015.6 |
| 20260505004904 | 70 | 167 | 0.0 | 2.0 | 0.00 | 0.00 | 0.00 | 83 | 1015.6 |
| 20260505004404 | 70 | 188 | 0.0 | 5.0 | 0.00 | 0.00 | 0.00 | 83 | 1015.6 |
| 20260505003404 | 70 | 168 | 0.0 | 6.0 | 0.00 | 0.00 | 0.00 | 83 | 1015.6 |
| 20260505002904 | 70 | 169 | 0.0 | 3.0 | 0.00 | 0.00 | 0.00 | 83 | 1015.7 |
| 20260505001904 | 70 | 169 | 0.0 | 3.0 | 0.00 | 0.00 | 0.00 | 83 | 1015.7 |
| 20260505001405 | 70 | 162 | 0.0 | 0.0 | 0.00 | 0.00 | 0.00 | 83 | 1015.7 |
| 20260505000405 | 70 | 185 | 0.0 | 3.0 | 0.00 | 0.00 | 0.00 | 83 | 1015.8 |
| 20260504235904 | 71 | 128 | 0.0 | 3.0 | 0.00 | 0.00 | 0.00 | 83 | 1015.8 |
| 20260504235404 | 71 | 169 | 0.0 | 3.0 | 0.00 | 0.00 | 0.00 | 83 | 1015.9 |
| 20260504234904 | 71 | 166 | 0.0 | 1.0 | 0.00 | 0.00 | 0.00 | 83 | 1015.8 |
| 20260504234404 | 71 | 129 | 0.0 | 1.0 | 0.00 | 0.00 | 0.00 | 83 | 1015.9 |
| 20260504233904 | 71 | 153 | 0.0 | 1.0 | 0.00 | 0.00 | 0.00 | 83 | 1015.8 |
| 20260504233404 | 70 | 165 | 0.0 | 0.0 | 0.00 | 0.00 | 0.00 | 83 | 1015.9 |
| 20260504232904 | 70 | 160 | 0.0 | 0.0 | 0.00 | 0.00 | 0.00 | 83 | 1015.8 |
| 20260504232405 | 71 | 158 | 0.0 | 0.0 | 0.00 | 0.00 | 0.00 | 83 | 1015.9 |
| 20260504231904 | 71 | 158 | 0.0 | 0.0 | 0.00 | 0.00 | 0.00 | 83 | 1015.9 |
| 20260504231404 | 71 | 175 | 0.0 | 2.0 | 0.00 | 0.00 | 0.00 | 83 | 1015.9 |
| 20260504230904 | 71 | 182 | 1.0 | 3.0 | 0.00 | 0.00 | 0.00 | 83 | 1015.9 |
| 20260504230404 | 71 | 185 | 0.0 | 0.0 | 0.00 | 0.00 | 0.00 | 83 | 1016.0 |
| 20260504225404 | 71 | 181 | 0.0 | 2.0 | 0.00 | 0.00 | 0.00 | 83 | 1016.0 |
| 20260504224904 | 71 | 183 | 0.0 | 0.0 | 0.00 | 0.00 | 0.00 | 83 | 1016.0 |
| 20260504224404 | 71 | 183 | 0.0 | 0.0 | 0.00 | 0.00 | 0.00 | 83 | 1016.0 |
| 20260504223904 | 71 | 148 | 0.0 | 1.0 | 0.00 | 0.00 | 0.00 | 83 | 1016.0 |
| 20260504223405 | 71 | 178 | 0.0 | 2.0 | 0.00 | 0.00 | 0.00 | 83 | 1016.1 |
| 20260504222904 | 71 | 155 | 0.0 | 0.0 | 0.00 | 0.00 | 0.00 | 83 | 1016.2 |
| 20260504222404 | 71 | 182 | 0.0 | 0.0 | 0.00 | 0.00 | 0.00 | 83 | 1016.2 |
| 20260504221905 | 71 | 172 | 0.0 | 0.0 | 0.00 | 0.00 | 0.00 | 83 | 1016.2 |
| 20260504221404 | 71 | 193 | 0.0 | 3.0 | 0.00 | 0.00 | 0.00 | 83 | 1016.3 |
| 20260504220405 | 71 | 179 | 0.0 | 3.0 | 0.00 | 0.00 | 0.00 | 82 | 1016.3 |
| 20260504215904 | 71 | 170 | 0.0 | 0.0 | 0.00 | 0.00 | 0.00 | 82 | 1016.4 |
| 20260504215404 | 71 | 174 | 0.0 | 0.0 | 0.00 | 0.00 | 0.00 | 82 | 1016.4 |
| 20260504214405 | 71 | 173 | 0.0 | 1.0 | 0.00 | 0.00 | 0.00 | 82 | 1016.6 |
| 20260504213904 | 71 | 174 | 0.0 | 2.0 | 0.00 | 0.00 | 0.00 | 82 | 1016.6 |
| 20260504213404 | 71 | 146 | 0.0 | 6.0 | 0.00 | 0.00 | 0.00 | 82 | 1016.6 |
| 20260504212404 | 71 | 178 | 1.0 | 5.0 | 0.00 | 0.00 | 0.00 | 82 | 1016.6 |
| 20260504211904 | 71 | 163 | 1.0 | 5.0 | 0.00 | 0.00 | 0.00 | 82 | 1016.6 |
| 20260504210904 | 71 | 170 | 1.0 | 8.0 | 0.00 | 0.00 | 0.00 | 82 | 1016.6 |
| 20260504205904 | 71 | 172 | 0.0 | 5.0 | 0.00 | 0.00 | 0.00 | 82 | 1016.7 |
| 20260504205404 | 71 | 180 | 2.0 | 5.0 | 0.00 | 0.00 | 0.00 | 83 | 1016.7 |
| 20260504204904 | 71 | 184 | 1.0 | 3.0 | 0.00 | 0.00 | 0.00 | 83 | 1016.8 |
| 20260504204404 | 71 | 186 | 0.0 | 3.0 | 0.00 | 0.00 | 0.00 | 83 | 1016.7 |
| 20260504203404 | 71 | 181 | 0.0 | 3.0 | 0.00 | 0.00 | 0.00 | 83 | 1016.7 |
| 20260504202904 | 71 | 184 | 2.0 | 5.0 | 0.00 | 0.00 | 0.00 | 83 | 1016.9 |
| 20260504202404 | 71 | 178 | 0.0 | 7.0 | 0.00 | 0.00 | 0.00 | 83 | 1016.9 |
| 20260504201904 | 71 | 166 | 0.0 | 2.0 | 0.00 | 0.00 | 0.00 | 83 | 1016.9 |
| 20260504200904 | 71 | 166 | 0.0 | 3.0 | 0.00 | 0.00 | 0.00 | 82 | 1017.0 |
| 20260504200404 | 71 | 184 | 1.0 | 6.0 | 0.00 | 0.00 | 0.00 | 82 | 1017.0 |
| 20260504195905 | 71 | 180 | 0.0 | 3.0 | 0.00 | 0.00 | 0.00 | 82 | 1017.0 |
| 20260504194904 | 71 | 158 | 1.0 | 6.0 | 0.00 | 0.00 | 0.00 | 82 | 1017.1 |
| 20260504194404 | 71 | 178 | 1.0 | 5.0 | 0.00 | 0.00 | 0.00 | 82 | 1017.1 |
| 20260504193904 | 71 | 158 | 0.0 | 3.0 | 0.00 | 0.00 | 0.00 | 82 | 1017.1 |
| 20260504193404 | 71 | 161 | 0.0 | 3.0 | 0.00 | 0.00 | 0.00 | 82 | 1017.1 |
| 20260504192904 | 71 | 166 | 1.0 | 5.0 | 0.00 | 0.00 | 0.00 | 82 | 1017.2 |
| 20260504192404 | 72 | 187 | 0.0 | 3.0 | 0.00 | 0.00 | 0.00 | 82 | 1017.2 |
| 20260504191905 | 72 | 189 | 2.0 | 7.0 | 0.00 | 0.00 | 0.00 | 82 | 1017.1 |
| 20260504190904 | 72 | 186 | 1.0 | 5.0 | 0.00 | 0.00 | 0.00 | 81 | 1017.1 |
| 20260504185404 | 72 | 161 | 1.0 | 9.0 | 0.00 | 0.00 | 0.00 | 82 | 1017.0 |
| 20260504184404 | 71 | 186 | 0.0 | 3.0 | 0.00 | 0.00 | 0.00 | 82 | 1017.0 |
| 20260504183904 | 71 | 183 | 0.0 | 3.0 | 0.00 | 0.00 | 0.00 | 82 | 1017.0 |
| 20260504183405 | 72 | 166 | 0.0 | 3.0 | 0.00 | 0.00 | 0.00 | 82 | 1017.1 |
| 20260504182904 | 72 | 192 | 0.0 | 3.0 | 0.00 | 0.00 | 0.00 | 82 | 1017.0 |
| 20260504182404 | 72 | 169 | 0.0 | 1.0 | 0.00 | 0.00 | 0.00 | 81 | 1017.0 |
| 20260504181904 | 72 | 187 | 1.0 | 5.0 | 0.00 | 0.00 | 0.00 | 82 | 1017.1 |
| 20260504181404 | 72 | 187 | 1.0 | 5.0 | 0.00 | 0.00 | 0.00 | 82 | 1017.0 |
| 20260504180904 | 71 | 183 | 1.0 | 5.0 | 0.00 | 0.00 | 0.00 | 82 | 1017.0 |
| 20260504180404 | 72 | 188 | 0.0 | 1.0 | 0.00 | 0.00 | 0.00 | 82 | 1017.0 |
| 20260504175904 | 72 | 181 | 0.0 | 1.0 | 0.00 | 0.00 | 0.00 | 82 | 1017.0 |
| 20260504175404 | 72 | 180 | 0.0 | 1.0 | 0.00 | 0.00 | 0.00 | 82 | 1017.0 |
| 20260504174904 | 72 | 197 | 0.0 | 1.0 | 0.00 | 0.00 | 0.00 | 82 | 1017.0 |
| 20260504174405 | 72 | 178 | 0.0 | 1.0 | 0.00 | 0.00 | 0.00 | 82 | 1017.0 |
| 20260504173904 | 72 | 199 | 0.0 | 2.0 | 0.00 | 0.00 | 0.00 | 82 | 1017.0 |
| 20260504173404 | 71 | 161 | 1.0 | 6.0 | 0.00 | 0.00 | 0.00 | 82 | 1017.0 |
| 20260504172904 | 72 | 185 | 0.0 | 3.0 | 0.00 | 0.00 | 0.00 | 82 | 1017.0 |
| 20260504172404 | 72 | 178 | 0.0 | 1.0 | 0.00 | 0.00 | 0.00 | 82 | 1017.1 |
| 20260504171904 | 72 | 185 | 0.0 | 0.0 | 0.00 | 0.00 | 0.00 | 82 | 1017.1 |
| 20260504171404 | 72 | 189 | 0.0 | 1.0 | 0.00 | 0.00 | 0.00 | 82 | 1017.1 |
| 20260504170904 | 72 | 182 | 0.0 | 2.0 | 0.00 | 0.00 | 0.00 | 82 | 1017.1 |
| 20260504170404 | 72 | 183 | 0.0 | 0.0 | 0.00 | 0.00 | 0.00 | 82 | 1017.1 |
| 20260504160404 | 73 | 170 | 0.0 | 0.0 | 0.00 | 0.00 | 0.00 | 80 | 1016.8 |
| 20260504140404 | 76 | 159 | 0.0 | 0.0 | 0.00 | 0.00 | 0.00 | 76 | 1015.9 |
| 20260504130404 | 80 | 166 | 2.0 | 9.0 | 0.00 | 0.00 | 0.00 | 68 | 1015.5 |
| 20260504100403 | 83 | 160 | 5.0 | 12.0 | 0.00 | 0.00 | 0.00 | 63 | 1015.1 |